sat.trackr.live / text

‹ back to catalog

STARLINK-35551

NORAD 66200 · 2025-243Z

PAYLOAD ACTIVE UNKNOWN

§ Identity

Operator
Country
US
Launch date
2025-10-26
Launch site
AFETR
Launch vehicle
Mass (kg)
RCS (m²)

Purposes: comms

External: N2YO · Heavens-Above · Gunter

§ Orbital elements

Epoch: 2026-09-20T21:21:37.124928Z

Period
93.85 min
Inclination
53.1583°
Eccentricity
0.0001768
Mean motion
15.34403828 rev/d
Perigee alt
461.5 km
Apogee alt
463.9 km
Semi-major
6,840.8 km
B*
3.9636e-4
RAAN
57.5846°
Arg perigee
103.6102°
Mean anomaly
256.5098°
Rev number
5,055

§ Raw data

STARLINK-355511 66200U 25243Z   26263.89001302  .00013040  00000+0  39636-3 0  99992 66200  53.1583  57.5846 0001768 103.6102 256.5098 15.34403828 50559

JSON: /api/v1/satellites/66200 · /tle

For live sub-satellite position, see the globe view (requires WebGL).

§ Visibility from observer

Set your observer location to see the next 7 days of passes ≥ 10°. The values pass through the URL so the page stays shareable.

No JS? Fill the form by hand. The geolocation button needs JavaScript.